Regional Weather Roundup
Issued by NWS

Home | Current Version | Previous Version | Graphics & Text | Print | Product List | Glossary On
Versions: 1 2 3 4 5 6 7 8 9 10 11 12 13 14 15 16 17 18 19 20 21 22 23 24 25 26 27 28 29 30 31 32 33 34 35 36 37 38 39 40 41 42 43 44 45 46 47 48 49 50
000
ASUS45 KBOU 120610
RWRCO

WEATHER ROUNDUP FOR COLORADO
NATIONAL WEATHER SERVICE DENVER/BOULDER CO
1200 AM MDT SAT JUL 12 2014

NOTE: "FAIR" INDICATES FEW OR NO CLOUDS BELOW 12000 FEET WITH NO
SIGNIFICANT WEATHER AND/OR OBSTRUCTIONS TO VISIBILITY.

COZ001>005-013-030-031-120700-
...NORTHWEST COLORADO...

CITY           SKY/WX    TMP DP  RH WIND       PRES   REMARKS
CRAIG          MOCLDY    59  59 100 E13       30.24F
HAYDEN         CLOUDY    61  55  82 S9        30.30F
MEEKER         MOCLDY    66  53  63 NE6       30.26R
MOUNT WERNER   NOT AVBL
STEAMBOAT SPGS CLOUDY    60  55  84 CALM      30.37R
WALDEN         CLOUDY    54  50  87 CALM      30.40S
$$

COZ006>008-011-120700-
...WEST CENTRAL VALLEYS...

CITY           SKY/WX    TMP DP  RH WIND       PRES   REMARKS
GRAND JUNCTION MOCLDY    74  52  46 SE12      30.10R
MONTROSE       PTCLDY    71  51  49 E10       30.21F
EAGLE          CLOUDY    63  57  82 CALM      30.36R
RIFLE          MOCLDY    64  59  83 CALM      30.21R
DELTA          PTCLDY    72  59  64 N6G12     30.14F
NUCLA          PTCLDY    73  43  33 SE3       30.22S
$$

COZ017>023-064>068-120700-
...SOUTHWEST COLORADO...

CITY           SKY/WX    TMP DP  RH WIND       PRES   REMARKS
DURANGO        LGT RAIN  60  58  92 N9        30.38F
CORTEZ         LGT RAIN  69  57  65 SE23G36   30.27R
PAGOSA SPRINGS CLOUDY    59  55  86 NW3       30.46S
TELLURIDE      CLOUDY    63  48  59 SE12G23   30.48R
WOLF CREEK PAS NOT AVBL
$$

COZ009-010-012-014-032>034-037-058>063-120700-
...CENTRAL COLORADO...

CITY           SKY/WX    TMP DP  RH WIND       PRES   REMARKS
ASPEN          LGT RAIN  58  53  84 CALM      30.41R
BUENA VISTA    PTCLDY    58  49  72 NW10      30.40S
COPPER MTN     MOCLDY    54  43  66 S6        30.69F THUNDER
BERTHOUD PASS  CLOUDY    45  32  61 MISG      30.75S
COTTONWOOD PAS MOCLDY    61  43  51 CALM      30.54S
GUNNISON       MOCLDY    55  50  82 NW3       30.43R
KREMMLING      MOCLDY    55  52  88 CALM      30.38F
LEADVILLE      PTCLDY    44  43  96 NE6       30.53S
SALIDA         MOCLDY   N/A N/A N/A W7        30.45R
SUNLIGHT       CLOUDY    50  48  93 CALM      30.59F THUNDER
WILKERSON PASS CLOUDY    52  43  71 SW5       30.67F
$$

COZ069>075-120700-
...SAN LUIS VALLEY/SANGRE DE CRISTO MOUNTAINS...

CITY           SKY/WX    TMP DP  RH WIND       PRES   REMARKS
ALAMOSA        PTCLDY    57  49  74 SE7       30.36R
LA VETA PASS   NOT AVBL
SAGUACHE       NOT AVBL
$$

COZ035-036-038>040-120700-
...NORTHERN COLORADO FRONT RANGE...

CITY           SKY/WX    TMP DP  RH WIND       PRES   REMARKS
DENVER INTL AP CLOUDY    66  62  87 N8        30.25R
DMNS CITY PARK   N/A     68  63  83 NW2       30.25R
AURORA         MOCLDY    66  65  97 N3        30.27R
FRONT RANGE AP NOT AVBL
ERIE MUNI ARPT CLOUDY    66  62  87 NW6       30.25R
BOULDER MUN AP CLOUDY    66  61  82 N7        30.26R
CENTENNIAL     CLOUDY    67  59  75 NW6       30.27R
BROOMFIELD     CLOUDY    66  61  82 NW9       30.28S
FORT COLLINS   CLOUDY    66  61  82 N7        30.26S
LONGMONT       CLOUDY    69  63  79 NW3       30.26R
$$

COZ041-046-047-076>085-087-088-120700-
...PIKES PEAK/PALMER DIVIDE AND SOUTHERN FOOTHILLS...

CITY           SKY/WX    TMP DP  RH WIND       PRES   REMARKS
COLO. SPRINGS  CLOUDY    67  55  65 NE23      30.27R
A. F. ACADEMY  LGT RAIN  66  50  55 N12       30.30R
ELLICOTT       CLOUDY    65  59  81 NE12      30.25S
FALCON         CLOUDY    62  56  82 NE10      30.34R
FORT CARSON    CLOUDY    69  56  62 NE14G20   30.25R
LIMON          CLOUDY    68  58  70 CALM      30.20F
MONUMENT HILL  DRIZZLE   61  54  77 CALM      30.34R
TRINIDAD       PTCLDY    69  50  50 SW3       30.23S
$$

COZ042>045-048>051-090-091-120700-
...NORTHEAST COLORADO...

CITY           SKY/WX    TMP DP  RH WIND       PRES   REMARKS
GREELEY ARPT   NOT AVBL
AKRON          LGT RAIN  65  62  90 MISG      30.16R
BURLINGTON     CLOUDY    67  61  81 N3        30.13S
WRAY           CLOUDY    72  63  72 E3        30.06S
STERLING       CLOUDY    68  68 100 NW6       30.13F
HOLYOKE        LGT RAIN  70  64  83 N13       30.06F
FORT MORGAN    CLOUDY    66  63  90 NW7       30.19S
$$

COZ086-089-092>099-120700-
...SOUTHEAST COLORADO...

CITY           SKY/WX    TMP DP  RH WIND       PRES   REMARKS
PUEBLO         CLOUDY    75  57  53 E5        30.17R
LA JUNTA       MOCLDY    75  59  57 N8        30.12R
LAMAR          CLEAR     82  47  29 S18       30.03S
SPRINGFIELD      N/A     74  53  48 S12       30.16R
$$



USA.gov is the U.S. government's official web portal to all federal, state and local government web resources and services.